When you browse on this site, cookies collect data to enhance your experience and personalize the content and advertising you see.
Visit our Privacy Policy to learn more. By continuing to use the site, you agree to this use of cookies and data.
  • In France
  • List of Countries
  • For 7 days
  • Water Temperature
  • Weather Map
  • Weather Widgets
  • user-avatar
    Login

    Hourly Weather Rio de Janeiro

    Today, 21 November, Thursday

    Time Temperature Precipitation Wind Pressure Humidity
    00:00 +24°C° 0 mm 2 mps 760 mmHg 87%
    01:00 +24°C° 0 mm 2 mps 760 mmHg 88%
    02:00 +24°C° 0 mm 2 mps 759 mmHg 88%
    03:00 +23°C° 0 mm 2 mps 759 mmHg 89%
    04:00 +24°C° 0 mm 2 mps 759 mmHg 89%
    05:00 +24°C° 0 mm 2 mps 759 mmHg 88%
    06:00 +24°C° 0 mm 2 mps 759 mmHg 88%
    07:00 +25°C° 0 mm 2 mps 760 mmHg 80%
    08:00 +27°C° 0 mm 2 mps 760 mmHg 73%
    09:00 +29°C° 0 mm 2 mps 760 mmHg 66%
    10:00 +30°C° 0.1 mm 3 mps 760 mmHg 62%
    11:00 +32°C° 0.1 mm 4 mps 759 mmHg 59%
    12:00 +33°C° 0.1 mm 4 mps 759 mmHg 55%
    13:00 +33°C° 0.2 mm 5 mps 758 mmHg 58%
    14:00 +32°C° 0.2 mm 5 mps 758 mmHg 61%
    15:00 +32°C° 0.2 mm 6 mps 757 mmHg 64%
    16:00 +29°C° 0.3 mm 5 mps 758 mmHg 68%
    17:00 +28°C° 0.3 mm 5 mps 758 mmHg 73%
    18:00 +27°C° 0.3 mm 5 mps 758 mmHg 77%
    19:00 +26°C° 0.5 mm 4 mps 758 mmHg 79%
    20:00 +25°C° 0.5 mm 3 mps 759 mmHg 81%
    21:00 +25°C° 0.5 mm 3 mps 759 mmHg 83%
    22:00 +25°C° 0.1 mm 2 mps 759 mmHg 84%
    23:00 +24°C° 0.1 mm 2 mps 758 mmHg 85%

    Tomorrow, 22 November, Friday

    Time Temperature Precipitation Wind Pressure Humidity
    00:00 +24°C° 0.1 mm 1 mps 758 mmHg 86%
    01:00 +24°C° 0 mm 1 mps 757 mmHg 86%
    02:00 +24°C° 0 mm 1 mps 757 mmHg 86%
    03:00 +24°C° 0 mm 1 mps 757 mmHg 87%
    04:00 +24°C° 0 mm 1 mps 757 mmHg 85%
    05:00 +24°C° 0 mm 1 mps 757 mmHg 84%
    06:00 +24°C° 0 mm 1 mps 757 mmHg 83%
    07:00 +27°C° 0 mm 1 mps 757 mmHg 75%
    08:00 +29°C° 0 mm 1 mps 757 mmHg 66%
    09:00 +31°C° 0 mm 1 mps 758 mmHg 57%
    10:00 +32°C° 0 mm 2 mps 757 mmHg 54%
    11:00 +34°C° 0 mm 2 mps 757 mmHg 51%
    12:00 +35°C° 0 mm 3 mps 756 mmHg 48%
    13:00 +35°C° 0.4 mm 3 mps 756 mmHg 52%
    14:00 +34°C° 0.4 mm 4 mps 755 mmHg 56%
    15:00 +33°C° 0.4 mm 4 mps 755 mmHg 60%
    16:00 +32°C° 0.5 mm 4 mps 755 mmHg 65%
    17:00 +30°C° 0.5 mm 3 mps 755 mmHg 70%
    18:00 +29°C° 0.5 mm 3 mps 755 mmHg 75%
    19:00 +28°C° 0.3 mm 2 mps 755 mmHg 77%
    20:00 +27°C° 0.3 mm 2 mps 755 mmHg 79%
    21:00 +27°C° 0.3 mm 1 mps 756 mmHg 81%
    22:00 +27°C° 0 mm 1 mps 755 mmHg 81%
    23:00 +26°C° 0 mm 1 mps 755 mmHg 81%

    Day after tomorrow, 23 November, Saturday

    Time Temperature Precipitation Wind Pressure Humidity
    00:00 +26°C° 0 mm 1 mps 755 mmHg 81%
    01:00 +26°C° 0 mm 1 mps 754 mmHg 81%
    02:00 +26°C° 0 mm 1 mps 754 mmHg 81%
    03:00 +26°C° 0 mm 1 mps 753 mmHg 81%
    04:00 +26°C° 0 mm 1 mps 753 mmHg 81%
    05:00 +26°C° 0 mm 1 mps 754 mmHg 81%
    06:00 +26°C° 0 mm 1 mps 754 mmHg 80%
    07:00 +28°C° 0 mm 1 mps 754 mmHg 73%
    08:00 +30°C° 0 mm 1 mps 754 mmHg 65%
    09:00 +32°C° 0 mm 1 mps 754 mmHg 58%
    10:00 +33°C° 0 mm 1 mps 754 mmHg 54%
    11:00 +35°C° 0 mm 2 mps 754 mmHg 50%
    12:00 +36°C° 0 mm 3 mps 753 mmHg 46%
    13:00 +35°C° 0.1 mm 3 mps 753 mmHg 50%
    14:00 +34°C° 0.1 mm 3 mps 753 mmHg 54%
    15:00 +33°C° 0.1 mm 4 mps 753 mmHg 59%
    16:00 +30°C° 0.2 mm 3 mps 753 mmHg 63%
    17:00 +29°C° 0.2 mm 3 mps 753 mmHg 68%
    18:00 +28°C° 0.2 mm 2 mps 753 mmHg 73%
    19:00 +27°C° 0 mm 2 mps 754 mmHg 75%
    20:00 +27°C° 0 mm 2 mps 754 mmHg 77%
    21:00 +26°C° 0 mm 2 mps 755 mmHg 80%
    22:00 +26°C° 0 mm 3 mps 755 mmHg 81%
    23:00 +25°C° 0 mm 3 mps 755 mmHg 83%

    24 November, Sunday

    Time Temperature Precipitation Wind Pressure Humidity
    00:00 +25°C° 0 mm 3 mps 755 mmHg 85%
    01:00 +25°C° 0 mm 3 mps 755 mmHg 86%
    02:00 +25°C° 0 mm 3 mps 754 mmHg 86%
    03:00 +25°C° 0 mm 3 mps 754 mmHg 87%
    04:00 +25°C° 0.1 mm 3 mps 754 mmHg 86%
    05:00 +25°C° 0.1 mm 2 mps 755 mmHg 86%
    06:00 +25°C° 0.1 mm 2 mps 755 mmHg 86%
    07:00 +26°C° 0.3 mm 2 mps 755 mmHg 81%
    08:00 +27°C° 0.3 mm 3 mps 756 mmHg 75%
    09:00 +29°C° 0.3 mm 3 mps 756 mmHg 70%
    10:00 +29°C° 0.3 mm 3 mps 756 mmHg 68%
    11:00 +29°C° 0.3 mm 3 mps 756 mmHg 66%
    12:00 +30°C° 0.3 mm 3 mps 755 mmHg 65%
    13:00 +29°C° 0.2 mm 3 mps 755 mmHg 66%
    14:00 +28°C° 0.2 mm 3 mps 755 mmHg 68%
    15:00 +28°C° 0.2 mm 3 mps 755 mmHg 70%
    16:00 +27°C° 0.1 mm 3 mps 755 mmHg 73%
    17:00 +26°C° 0.1 mm 3 mps 756 mmHg 76%
    18:00 +25°C° 0.1 mm 3 mps 756 mmHg 78%
    19:00 +25°C° 0.1 mm 3 mps 757 mmHg 79%
    20:00 +25°C° 0.1 mm 3 mps 757 mmHg 80%
    21:00 +24°C° 0.1 mm 3 mps 758 mmHg 81%
    22:00 +24°C° 0 mm 3 mps 758 mmHg 82%
    23:00 +24°C° 0 mm 3 mps 758 mmHg 82%

    25 November, Monday

    Time Temperature Precipitation Wind Pressure Humidity
    00:00 +24°C° 0 mm 3 mps 758 mmHg 82%
    01:00 +24°C° 0 mm 3 mps 757 mmHg 82%
    02:00 +22°C° 0 mm 3 mps 757 mmHg 82%
    03:00 +22°C° 0 mm 3 mps 757 mmHg 82%
    04:00 +22°C° 0 mm 3 mps 757 mmHg 82%
    05:00 +22°C° 0 mm 3 mps 757 mmHg 82%
    06:00 +22°C° 0 mm 3 mps 757 mmHg 82%
    07:00 +24°C° 0 mm 3 mps 757 mmHg 77%
    08:00 +26°C° 0 mm 3 mps 757 mmHg 71%
    09:00 +27°C° 0 mm 3 mps 757 mmHg 66%
    10:00 +28°C° 0 mm 3 mps 757 mmHg 62%
    11:00 +29°C° 0 mm 4 mps 757 mmHg 58%
    12:00 +30°C° 0 mm 4 mps 756 mmHg 55%
    13:00 +29°C° 0 mm 5 mps 756 mmHg 57%
    14:00 +29°C° 0 mm 5 mps 755 mmHg 60%
    15:00 +28°C° 0 mm 5 mps 755 mmHg 62%
    16:00 +27°C° 0 mm 5 mps 755 mmHg 65%
    17:00 +27°C° 0 mm 5 mps 755 mmHg 68%
    18:00 +26°C° 0 mm 5 mps 755 mmHg 71%
    19:00 +25°C° 0 mm 4 mps 756 mmHg 73%
    20:00 +23°C° 0 mm 4 mps 756 mmHg 74%
    21:00 +22°C° 0 mm 3 mps 756 mmHg 76%
    22:00 +22°C° 0 mm 3 mps 756 mmHg 77%
    23:00 +22°C° 0 mm 3 mps 755 mmHg 78%

    26 November, Tuesday

    Time Temperature Precipitation Wind Pressure Humidity
    00:00 +21°C° 0 mm 3 mps 755 mmHg 79%
    01:00 +21°C° 0 mm 2 mps 755 mmHg 80%
    02:00 +21°C° 0 mm 2 mps 755 mmHg 81%
    03:00 +21°C° 0 mm 2 mps 754 mmHg 81%
    04:00 +23°C° 0 mm 2 mps 754 mmHg 81%
    05:00 +23°C° 0 mm 2 mps 755 mmHg 80%
    06:00 +23°C° 0 mm 2 mps 755 mmHg 79%
    07:00 +26°C° 0 mm 1 mps 755 mmHg 72%
    08:00 +28°C° 0 mm 1 mps 755 mmHg 64%
    09:00 +31°C° 0 mm 1 mps 755 mmHg 57%
    10:00 +32°C° 0 mm 1 mps 754 mmHg 52%
    11:00 +35°C° 0 mm 2 mps 753 mmHg 48%
    12:00 +37°C° 0 mm 2 mps 753 mmHg 44%
    13:00 +37°C° 0 mm 2 mps 752 mmHg 44%
    14:00 +37°C° 0 mm 2 mps 751 mmHg 43%
    15:00 +38°C° 0 mm 3 mps 751 mmHg 43%
    16:00 +36°C° 0 mm 3 mps 751 mmHg 49%
    17:00 +35°C° 0 mm 3 mps 751 mmHg 56%
    18:00 +33°C° 0 mm 3 mps 751 mmHg 62%
    19:00 +31°C° 0 mm 3 mps 752 mmHg 65%
    20:00 +30°C° 0 mm 3 mps 752 mmHg 69%
    21:00 +29°C° 0 mm 3 mps 753 mmHg 72%
    22:00 +29°C° 0 mm 3 mps 752 mmHg 74%
    23:00 +28°C° 0 mm 2 mps 752 mmHg 75%
    Show more